Regional Weather Roundup
Issued by NWS

Home | Current Version | Previous Version | Graphics & Text | Print | Product List | Glossary On
Versions: 1 2 3 4 5 6 7 8 9 10 11 12 13 14 15 16 17 18 19 20 21 22 23 24 25 26 27 28 29 30 31 32 33 34 35 36 37 38 39 40 41 42 43 44 45 46 47 48 49 50
000
ASUS45 KCYS 012010
RWRWY

WYOMING REGIONAL WEATHER ROUNDUP
NATIONAL WEATHER SERVICE CHEYENNE WY
200 PM MDT MON SEP 01 2014

NOTE:  "FAIR" INDICATES FEW OR NO CLOUDS BELOW 12,000 FEET
WITH NO SIGNIFICANT WEATHER AND/OR OBSTRUCTIONS TO VISIBILITY.

WYZ001-012100-
YELLOWSTONE NATIONAL PARK

CITY           SKY/WX    TMP DP  RH WIND       PRES   REMARKS
LK YELLOWSTONE   N/A     55  33  43 VRB6      30.20R
W YELLOWSTONE  NOT AVBL

$$
WYZ002>013-054>058-071-098>099-012100-
NORTHERN WYOMING

CITY           SKY/WX    TMP DP  RH WIND       PRES   REMARKS
JACKSON        PTSUNNY   61  30  31 SW7       30.14S
CODY             N/A    N/A N/A N/A MISG        N/A
GREYBULL       MOSUNNY   67  42  40 S5        29.98F
WORLAND        SUNNY     68  43  40 VRB7      29.99F
SHERIDAN       PTSUNNY   58  49  72 S10       30.01S
BUFFALO        CLOUDY    52  45  77 N8        30.06S
GILLETTE       PTSUNNY   61  42  49 N9        30.03R
HULETT         CLOUDY    55  41  58 MISG      30.03
NEWCASTLE      FAIR      55  48  76 N12G20    30.02

$$
WYZ014>020-022>026-101>103-012100-
CENTRAL WYOMING

CITY           SKY/WX    TMP DP  RH WIND       PRES   REMARKS
BIG PINEY      SUNNY     66  23  19 NW16      30.16R
PINEDALE       PTCLDY    63  30  29 NW14G20   30.17R
DUBOIS         MOCLDY    59  28  31 NW17G26   30.11S
LANDER         SUNNY     68  32  26 CALM      30.02R
RIVERTON       MOSUNNY   69  28  21 VRB5      30.02F
CASPER         MOSUNNY   70  40  33 NW13G22   30.00S
DOUGLAS        MOSUNNY   67  46  47 N20G25    29.99S

$$
WYZ021-027>030-104>119-012100-
SOUTHERN WYOMING

CITY           SKY/WX    TMP DP  RH WIND       PRES   REMARKS
EVANSTON       MOSUNNY   68  33  27 W17G26    30.20S
KEMMERER       CLEAR     64  32  29 W17G24    30.19S
FORT BRIDGER   FAIR      69  32  25 W18G32    30.20S
ROCK SPRINGS   SUNNY     68  29  23 W23G35    30.14F
DIXON          MOCLDY    69  37  29 W20G28    30.15S
RAWLINS        SUNNY     69  29  22 W25G37    30.09S
SARATOGA       FAIR      68  34  28 W23G32    30.13S
LARAMIE        MOSUNNY   66  31  27 W25G33    30.10F
CHEYENNE       PTSUNNY   69  31  24 W16       30.05F
TORRINGTON     SUNNY     77  36  22 W16G26    29.92F
PINE BLUFFS    MOCLDY    73  39  29 SW9       30.01F

$$


USA.gov is the U.S. government's official web portal to all federal, state and local government web resources and services.